www.pogodaiklimat.ru

Погода и климат >> Архив погоды >> Россия >> Якутия >> Черский


ПОГОДА в Черском

  • Прогноз погоды в Черском
  • Монитор погоды в Черском

АРХИВ ПОГОДЫ в Черском

Время (UTC), дата Ветер
(напр.,м/с)
 
Видим.   Явления Облачность Т
(С)
Тd
(С)
f
(%)
Тe
(С)
Тes
(С)
Комфортность P
(гПа)
Po
(гПа)
Тmin
(С)
Tmax
(С)
R
(мм)
R24
(мм)
S
(см)
00 14.03 ЮВ 1 20 км ясно -25.8 -28.9 75 -29 -27 1019.9 1016.4
03 14.03 штиль 0 20 км ясно -21.9 -25.9 70 -22 -19 1018.1 1014.6
06 14.03 СВ 2 20 км ясно -23.3 -27.2 70 -30 -29 1017.2 1013.7
09 14.03 СВ 3 20 км ясно -27.5 -31.3 70 -37 -37 опасность
обморожения
1016.3 1012.8 -20.8
12 14.03 С 3 20 км ясно -28.0 -29.8 84 -37 -37 опасность
обморожения
1015.6 1012.1
15 14.03 С 2 20 км ясно -35.4 -37.7 79 -44 -44 опасность
обморожения
1014.8 1011.2
18 14.03 ЮВ 2 20 км ясно -37.9 -39.7 83 -47 -47 опасность
обморожения
1012.7 1009.0
21 14.03 ЮВ 3 20 км 4/0
[Ac trans Ci fib]
-38.7 -40.7 81 -50 -50 опасность
обморожения
1013.4 1009.7 -38.7 48
00 15.03 ЮВ 3 20 км 4/0
[Ac trans Ci fib]
-35.4 -37.7 79 -46 -45 опасность
обморожения
1013.2 1009.5
03 15.03 Ю 3 20 км 3/0
[Ci fib]
-32.1 -35.0 75 -42 -41 опасность
обморожения
1013.0 1009.4
06 15.03 Ю 2 20 км 5/0
[Ci fib]
-30.7 -33.6 76 -38 -38 опасность
обморожения
1013.5 1009.5
09 15.03 ЮВ 1 20 км ясно -32.5 -34.8 80 -37 -37 опасность
обморожения
1014.2 1010.6 -30.5
12 15.03 ЮВ 1 20 км ясно -32.6 -34.8 81 -37 -37 опасность
обморожения
1014.4 1010.8
15 15.03 штиль 0 20 км ясно -32.2 -34.6 79 -32 -32 опасность
обморожения
1015.0 1011.4
18 15.03 ЮВ 1 20 км ясно -32.7 -35.1 79 -37 -37 опасность
обморожения
1015.4 1011.8
21 15.03 штиль 0 10 км слаб. снег 8/0
[As trans]
-31.2 -33.6 79 -31 -31 опасность
обморожения
1016.3 1012.7 -33.0 0.0 47
00 16.03 Ю 1 20 км слаб. снег 10/0
[As op]
-27.7 -30.8 75 -32 -31 опасность
обморожения
1016.9 1013.3
03 16.03 З 1 10 км слаб. снег 10/0
[As op]
-26.2 -29.4 74 -30 -29 1017.0 1013.5
06 16.03 С 1 20 км слаб. снег 10/0
[As op]
-25.6 -28.8 74 -29 -29 1017.5 1014.0
09 16.03 СВ 2 20 км в посл. час снег 10/0
[As op Cs]
-28.0 -30.4 80 -35 -35 опасность
обморожения
1018.3 1014.7 -25.4 0.4
12 16.03 СВ 2 20 км {снег} 3/0
[Cs]
-29.4 -31.7 80 -37 -37 опасность
обморожения
1018.9 1015.3
15 16.03 СВ 2 20 км 3/0
[Cs]
-30.7 -32.9 81 -38 -38 опасность
обморожения
1018.8 1015.2
18 16.03 штиль 0 20 км ясно -32.9 -35.1 81 -33 -33 опасность
обморожения
1018.8 1015.2
21 16.03 ЮВ 1 20 км 3/0
[Ci fib]
-35.5 -37.7 80 -40 -40 опасность
обморожения
1019.2 1015.5 -36.2 46
00 17.03 ЮВ 1 20 км 4/0
[Ci fib]
-30.6 -32.9 80 -35 -32 опасность
обморожения
1019.2 1015.6
03 17.03 С 1 20 км 3/0
[Ci fib]
-27.2 -29.6 80 -31 -29 опасность
обморожения
1018.5 1014.9
06 17.03 С 2 20 км ясно -27.8 -30.3 79 -35 -35 опасность
обморожения
1018.0 1014.4
09 17.03 СВ 2 20 км ясно -33.5 -35.9 79 -42 -42 опасность
обморожения
1017.6 1013.9 -27.8
12 17.03 ЮВ 1 20 км ясно -34.6 -36.7 81 -39 -39 опасность
обморожения
1017.4 1013.7
15 17.03 ЮВ 2 20 км ясно -36.4 -38.7 79 -45 -45 опасность
обморожения
1016.7 1013.0
18 17.03 ЮВ 2 20 км ясно -38.2 -40.3 80 -47 -47 опасность
обморожения
1016.1 1012.4
21 17.03 ЮВ 1 20 км ясно -37.4 -39.5 81 -42 -42 опасность
обморожения
1015.8 1012.1 -39.0 46
00 18.03 Ю 1 20 км 3/0
[Ci fib]
-34.9 -37.7 75 -40 -37 опасность
обморожения
1015.3 1011.7
03 18.03 С 3 20 км 8/0
[Ac As]
-28.8 -31.2 80 -38 -37 опасность
обморожения
1013.9 1010.4
06 18.03 С 5
{10}
20 км 9/0
[Ac As]
-26.8 -29.3 79 -39 -38 опасность
обморожения
1013.4 1009.9
09 18.03 С 5
{10}
20 км 9/0
[Ac As]
-25.9 -27.7 85 -37 -37 опасность
обморожения
1013.7 1010.2 -25.9
12 18.03 С 6 4000 м слаб. снег {метель} 10/0
[Ac As]
-26.0 -27.7 86 -39 -39 опасность
обморожения
1013.7 1010.2
15 18.03 СЗ 5 4000 м слаб. снег {метель} 10/0
[Ac As]
-27.7 -29.4 85 -40 -40 опасность
обморожения
1014.3 1010.8
18 18.03 С 5 4000 м слаб. снег {метель} 10/0
[Ac As]
-30.3 -32.1 84 -43 -43 опасность
обморожения
1015.5 1011.9
21 18.03 С 6
{10}
10 км слаб. снег {метель} 6/0
[Ac As]
-31.4 -33.6 81 -45 -45 опасность
обморожения
1016.5 1012.9 -31.4 0.3 47
00 19.03 С 4 20 км {снег, метель} 6/0
[As trans Ci fib]
-29.0 -31.3 80 -40 -39 опасность
обморожения
1017.6 1014.0
03 19.03 С 5 20 км 4/0
[As trans Ci fib]
-29.1 -32.2 74 -41 -40 опасность
обморожения
1018.2 1014.6
06 19.03 С 4 20 км 6/0
[As trans Ci fib]
-28.3 -30.6 81 -39 -39 опасность
обморожения
1019.2 1015.6
09 19.03 З 1 20 км 8/0
[As trans Ci fib]
-31.3 -33.6 80 -36 -36 опасность
обморожения
1020.3 1016.7 -28.3 0.0
12 19.03 ЮВ 1 10 км слаб. снег 6/0
[Ac As]
-32.1 -34.3 81 -36 -36 опасность
обморожения
1020.5 1016.9
15 19.03 В 2 10 км слаб. снег 8/0
[Ac As]
-33.4 -35.6 80 -41 -41 опасность
обморожения
1020.6 1016.9
18 19.03 ЮВ 3 10 км слаб. снег 6/0
[Ac As]
-33.2 -35.6 79 -43 -43 опасность
обморожения
1021.1 1017.4
21 19.03 ЮВ 3 10 км слаб. снег 4/0
[Ac As]
-33.2 -35.6 79 -43 -43 опасность
обморожения
1022.2 1018.5 -33.8 1 46
00 20.03 ЮВ 2 20 км {снег} 4/0
[Ac As]
-29.3 -31.7 80 -37 -35 опасность
обморожения
1003.1 1019.5
03 20.03 ЮВ 3 20 км 3/0
[Ac As]
-25.8 -28.2 80 -35 -33 опасность
обморожения
1023.7 1020.2
06 20.03 ЮВ 2 10 км слаб. снег 6/0
[Ac As]
-24.6 -27.0 80 -31 -31 опасность
обморожения
1024.7 1021.2
09 20.03 ЮВ 3 10 км слаб. снег 4/0
[Ac As]
-25.6 -28.1 79 -34 -34 опасность
обморожения
1025.5 1022.0 -24.6 0.3
12 20.03 В 2 20 км {снег} 8/0
[Ac trans]
-26.8 -28.6 85 -34 -34 опасность
обморожения
1027.2 1023.6
15 20.03 ЮВ 2 20 км 6/0
[]
-29.0 -30.8 84 -36 -36 опасность
обморожения
1028.0 1024.4
18 20.03 ЮВ 2 20 км 6/0
[Ac trans]
-29.2 -31.5 80 -37 -37 опасность
обморожения
1028.0 1024.6

 

Местоположение метеостанции Черский (Якутия, Россия): широта 68.73 долгота 161.30 высота над уровнем моря 28 м.

В архиве по умолчанию представлена погода в Черском за последнюю неделю. Архивные данные за месяц целиком и за предыдущие месяцы, начиная с января 2011 года, Вы можете получить, выбрав интересующий диапазон дат из раскрывающегося списка и нажав кнопку "Ввод!".


*Определитесь, кто Вы:
робот инопланетянин человек

Внимание! Время в таблицах - всемирное. Для получения местного времени необходимо прибавить поправку, которая равна 11 ч.

Смотрите также архив погоды в соседних городах и на ближайших метеорологических станциях:

Погода в Анюйске (Чукотка, Россия) (43 км)
Погода в Константиновской (Чукотка, Россия) (65 км)
Погода в Бухте Амбарчик (Чукотка, Россия) (107 км)
Погода в Колымской (Якутия, Россия) (109 км)
Погода в Островном (Чукотка, Россия) (133 км)
Погода в Билибино (Чукотка, Россия) (222 км)
Погода в Раучуе (Чукотка, Россия) (223 км)
Погода в Баимке (Чукотка, Россия) (274 км)
Погода в Андрюшкино (Якутия, Россия) (276 км)
Погода на Айон Острове (Чукотка, Россия) (291 км)

Пояснения к столбцам:

Ветер - указаны скорость ветра в м/с - средняя за 10 мин, порывы в срок и между сроками (в фигурных скобках) и направление, откуда дует ветер: С - северный, СВ - северо-восточный, В - восточный, ЮВ - юго-восточный, Ю - южный, ЮЗ - юго-западный, З - западный, СЗ - северо-западный.
Видимость - горизонтальная дальность видимости в метрах или километрах. При видимости от 1 до 10 км при отсутствии осадков обычно наблюдается дымка, при ухудшении видимости до 1 км и менее - туман. В сухую погоду видимость может ухудшаться дымом, пылью или мглою.
Явления - указаны атмосферные явления, наблюдавшиеся в срок или в последний час перед сроком; фигурными скобками обозначены явления, наблюдавшиеся между сроками (за 1-3 часа до срока); квадратными скобками обозначены град или гололедные отложения с указанием их диаметра в мм.
Облачность - указаны через наклонную черту общая и нижняя облачность в баллах и высота нижней границы облаков в метрах; квадратными скобками обозначены формы облаков: Ci - перистые, Cs - перисто-слоистые, Cc - перисто-кучевые, Ac - высококучевые, As - высокослоистые, Sc - слоисто-кучевые, Ns - слоисто-дождевые, Cu - кучевые, Cb - кучево-дождевые. Подробнее классификацию облаков см. в Атласе облаков (PDF).
T - Температура воздуха - температура, измеренная на высоте 2 м над землей.
Td - Температура точки росы - температура, при понижении до которой содержащийся в воздухе водяной пар достигнет насыщения.
f - Относительная влажность воздуха - влажноcть воздуха, измеренная на высоте 2 м над землей.
Te - Эффективная температура - температура, которую ощущает одетый по сезону человек в тени. Характеристика душности погоды. При расчете учитывается влияние влажности воздуха и скорости ветра на теплоощущения человека.
Tes - Эффективная температура на солнце - температура, которую ощущает человек, с поправкой на солнечный нагрев. Характеристика знойности погоды. Зависит от высоты солнца над горизонтом, облачности и скорости ветра. Ночью, в пасмурную погоду, а также при ветре 12 м/с и более поправка равна нулю.
P - Атмосферное давление - приведенное к уровню моря атмосферное давление.
Po - Атмосферное давление - измеренное на уровне метеостанции атмосферное давление.
Tmin - Минимальная температура - минимум температуры воздуха на высоте 2 м над землей.
Tmax - Максимальная температура - максимум температуры воздуха на высоте 2 м над землей.
R - Количество осадков - Количество выпавших осадков за период времени, мм. При наведении курсора мыши на число - период времени, за который выпало указанное количество осадков.
R24 - Количество осадков - Количество выпавших осадков за 24 часа, мм.
S - Снежный покров - Высота снежного покрова, см. При наведении курсора мыши на число - состояние снежного покрова и степень покрытия местности в баллах.